Regional Weather Roundup
Issued by NWS

Home | Current Version | Previous Version | Graphics & Text | Print | Product List | Glossary On
Versions: 1 2 3 4 5 6 7 8 9 10 11 12 13 14 15 16 17 18 19 20 21 22 23 24 25 26 27 28 29 30 31 32 33 34 35 36 37 38 39 40 41 42 43 44 45 46 47 48 49 50
000
ASUS43 KMKX 231411
RWRWI

WISCONSIN REGIONAL WEATHER ROUNDUP
NATIONAL WEATHER SERVICE MILWAUKEE/SULLIVAN WI
900 AM CDT SUN JUL 23 2017

NOTE: "FAIR" INDICATES FEW OR NO CLOUDS BELOW 12,000 FEET WITH NO
SIGNIFICANT WEATHER AND/OR OBSTRUCTIONS TO VISIBILITY.

WIZ001-002-006>008-014>016-023>028-231500-
NORTHWEST WISCONSIN

CITY           SKY/WX    TMP DP  RH WIND       PRES   REMARKS
SUPERIOR ARPT  NOT AVBL
ASHLAND        CLOUDY    58  57  97 NE7       29.90R FOG
HAYWARD        CLOUDY    61  57  87 NE9       29.89S
SIREN          CLOUDY    62  58  87 NE8       29.90S
CUMBERLAND     CLOUDY    63  55  77 N13       29.89R
RICE LAKE      SUNNY     66  58  75 NW9       29.88S
CHETEK         SUNNY     68  60  76 N8        29.87R
LADYSMITH      MOSUNNY   67  60  78 N13       29.88R
EAU CLAIRE     PTSUNNY   68  60  75 NW6       29.84R
MENOMONIE      MOSUNNY   70  60  69 NW9       29.86S
NEW RICHMOND   SUNNY     68  58  71 N13       29.89R
OSCEOLA        SUNNY     69  59  71 N10       29.91S
$$

WIZ003>005-009-010-017-018-231500-
NORTH CENTRAL WISCONSIN

CITY           SKY/WX    TMP DP  RH WIND       PRES   REMARKS
MANITOWISH WTR CLOUDY    58  58 100 N6        29.86S
ARBOR VITAE    CLOUDY    62  60  93 N6        29.85S
WOODRUFF       CLOUDY    62  60  93 N6        29.85S
RHINELANDER    PTSUNNY   67  62  84 N8        29.85S
EAGLE RIVER    CLOUDY    61  61 100 NW7       29.84S
LAND O LAKES   RAIN      60  60 100 N7        29.87S
PHILLIPS       CLOUDY    59  59 100 N6        29.86R
TOMAHAWK         N/A     62  61  97 NW3       29.85S
MEDFORD        CLOUDY    67  61  79 W3        29.84R
MERRILL        SUNNY     69  62  79 N5        29.83S
$$

WIZ029-030-035-036-043>047-231500-
CENTRAL WISCONSIN

CITY           SKY/WX    TMP DP  RH WIND       PRES   REMARKS
WAUSAU         SUNNY     71  63  75 NW8       29.81S
MOSINEE        MOSUNNY   70  64  83 NW7       29.84R
MARSHFIELD     CLOUDY    69  61  75 NW6       29.83R
STEVENS POINT  LGT RAIN  66  64  94 W3        29.83S
WAUPACA        CLOUDY    73  69  87 W5        29.81R
WAUTOMA        CLOUDY    70  66  87 NW7       29.82S
WISC RAPIDS    CLOUDY    69  65  86 W6        29.84R
CAMP DOUGLAS   PTSUNNY   70  68  94 NW5       29.84S
$$

WIZ011>013-019>022-031-037>040-048>050-231500-
NORTHEAST WISCONSIN

CITY           SKY/WX    TMP DP  RH WIND       PRES   REMARKS
ANTIGO         SUNNY     68  63  82 N8        29.83S
SHAWANO        CLOUDY    72  67  83 W7        29.79R
OCONTO         CLOUDY    67  66  95 NW5       29.78R
STURGEON BAY     N/A     68  66  93 MISG      29.78R
GREEN BAY      CLOUDY    72  71  97 W6        29.78R
MANITOWOC      MOSUNNY   76  70  82 W10       29.77F
APPLETON       PTSUNNY   70  70 100 W7        29.79R
CLINTONVILLE   CLOUDY    72  64  78 W7        29.80R
OSHKOSH        LGT RAIN  73  68  84 W8        29.79S
$$

WIZ032>034-041-042-053>061-231500-
SOUTHWEST WISCONSIN

CITY           SKY/WX    TMP DP  RH WIND       PRES   REMARKS
LA CROSSE      PTSUNNY   73  69  87 CALM      29.83F
SPARTA         CLOUDY    64  64 100 CALM      29.85S
VIROQUA        MOSUNNY   72  68  89 N5        29.86S
BOSCOBEL       MOSUNNY   73  69  87 CALM      29.84S
PRAIRIE DU CHI PTSUNNY   74  69  83 CALM      29.84S
PLATTEVILLE    CLOUDY    72  72 100 W3        29.86R
$$

WIZ056-057-062-063-064-067-068-231500-
SOUTH CENTRAL WISCONSIN

CITY           SKY/WX    TMP DP  RH WIND       PRES   REMARKS
REEDSBURG      CLOUDY    72  69  92 NW6       29.84S
BARABOO/DELLS  CLOUDY    73  64  73 CALM      29.83F
LONE ROCK      MOSUNNY   72  69  90 CALM      29.83S
MINERAL POINT  SUNNY     77  73  88 NW5       29.85F
MADISON        MOSUNNY   76  67  73 NW5       29.82R
MIDDLETON      SUNNY     77  72  85 W7        29.84S
WATERTOWN      SUNNY     74  72  91 W6        29.81S
MONROE         SUNNY     75  68  78 W7        29.84R
JANESVILLE     SUNNY     77  70  78 CALM      29.82R
$$

WIZ051-052-058>065-066-070>072-231500-
SOUTHEAST WISCONSIN

CITY           SKY/WX    TMP DP  RH WIND       PRES   REMARKS
MILWAUKEE      MOSUNNY   75  71  87 SW8       29.79F
WAUKESHA       SUNNY     73  70  88 SW5       29.81F
MILWAUKEE/TIMM SUNNY     75  66  73 SW5       29.80F
RACINE         MOSUNNY   76  72  87 S5        29.81F
KENOSHA        MOSUNNY   77  71  82 SW3       29.81S
FOND DU LAC    SUNNY     76  68  76 W6        29.80S
SHEBOYGAN      MOSUNNY   75  72  90 W12       29.78S
WEST BEND      MOSUNNY   73  68  83 W8        29.80R
JUNEAU         MOSUNNY   72  68  88 W5        29.83S
$$

LSZ147-162-231500-
LAKE SUPERIOR

STATION/POSITION TIME  TEMP    WIND        PRES    WAVE
                       AIR SEA DIR/SP/G            HT/PER
                 (UTC) (F)     (DEG/KT/KT) (MB)    (FT/S)
W MID LAKE BUOY  1350   51 47   30/ 10/ 12 1011.8R   2/ 4
DEVILS ISLAND    1400   56      30/ 11/ 12 1012.6R
SAXON HARBOR     1340   57      20/  5/  6 1011.9R
$$

LMZ867-665-643>646-231500-
LAKE MICHIGAN

STATION/POSITION TIME  TEMP    WIND        PRES    WAVE
                       AIR SEA DIR/SP/G            HT/PER
                 (UTC) (F)     (DEG/KT/KT) (MB)    (FT/S)
CHAMBERS ISLAND  1340   69     320/  6/  8 1007.5R
S GREEN BAY BUOY 1400   68 73   10/  6/  8 1008.5
N MID LAKE BUOY  1350   67 68  220/ 10/ 12 1007.9R   1
NORTHPORT PIER   1340   69     320/ 11/ 14 1007.8S
KEWAUNEE LAKESHO 1348   74     300/  5/ 10 1006.9F
SHEBOYGAN LAKESH 1400   73     270/ 11/ 12 1007.5F
PORT WASHINGTON  1330   78     240/  5/  7 1009.1F
ATWATER BUOY     1309   70 69  180/ 10/ 12 1008.8F
MILWAUKEE LAKESH 1350   73     220/  6/  7   N/A
S MID LAKE BUOY  1350   71 70  160/ 10/ 12 1008.4F   0
KENOSHA   LAKESH 1400   73     150/  4/  4 1009.1
$$

TC  - TEMPERATURE IN CELSIUS
VSB - VISIBILITY IN STATUTE MILES
WCI - WIND CHILL INDEX
HX  - HEAT INDEX





USA.gov is the U.S. government's official web portal to all federal, state and local government web resources and services.